Weather History for Cordova, AK

Change the Weather History Date:

Tuesday, February 7, 2012

  Actual Average Record
Temperature  
Mean Temperature 28 °F -  
Max Temperature 36 °F 34 °F 45 °F (1974)
Min Temperature 19 °F 22 °F -14 °F (1990)
Degree Days  
Heating Degree Days 38    
Moisture  
Dew Point 22 °F    
Average Humidity 90    
Maximum Humidity 100    
Minimum Humidity 76    
Precipitation  
Precipitation 0.00 in - - ()
Snow  
Snow 0.00 in - - ()
Snow Depth 38.00 in    
Sea Level Pressure  
Sea Level Pressure 29.79 in    
Wind  
Wind Speed 0 mph (SW)    
Max Wind Speed 4 mph    
Max Gust Speed -    
Visibility 10 miles    
Events      
Averages and records for this station are not official NWS values.
T = Trace of Precipitation, MM = Missing Value Source: NWS Daily Summary

Daily Weather History Graph

Daily Weather History Graph

Search for Another Location

Airport:

Trip Planner

Search our weather history database for the weather conditions in past years. The results will help you decide how hot, cold, wet, or windy it might be!

Date:

Astronomy

Feb. 07, 2012 Rise Set
Actual Time 8:43 AM AKST 5:09 PM AKST
Civil Twilight 7:57 AM AKST 5:55 PM AKST
Nautical Twilight 7:06 AM AKST 6:46 PM AKST
Astronomical Twilight 6:17 AM AKST 7:35 PM AKST
Moon 5:49 PM AKST (2/7) 8:05 AM AKST (2/7)
Length of Visible Light 9h 58m
Length of Day
8h 25m
Full, 100% of the Moon is Illuminated
Feb 7
Full
Feb 7
Full
Feb 14
Last Quarter
Feb 21
New
Feb 29
First Quarter

Hourly Weather History & Observations

Time (AKST) Temp. Windchill Dew Point Humidity Pressure Visibility Wind Dir Wind Speed Gust Speed Precip Events Conditions
12:53 AM 21.9 °F - 19.9 °F 92% 29.99 in 10.0 mi Calm Calm - N/A   Clear
1:53 AM 25.0 °F - 24.1 °F 96% 29.97 in 10.0 mi Calm Calm - N/A   Clear
2:53 AM 21.0 °F - 19.9 °F 96% 29.96 in 10.0 mi Calm Calm - N/A   Clear
3:53 AM 21.9 °F - 19.9 °F 92% 29.94 in 10.0 mi Calm Calm - N/A   Clear
4:53 AM 19.9 °F - 18.0 °F 92% 29.93 in 10.0 mi Calm Calm - N/A   Clear
5:53 AM 21.0 °F - 18.0 °F 88% 29.90 in 10.0 mi Calm Calm - N/A   Clear
6:53 AM 19.9 °F - 18.0 °F 92% 29.87 in 10.0 mi Calm Calm - N/A   Clear
7:53 AM 19.9 °F - 18.0 °F 92% 29.85 in 10.0 mi Calm Calm - N/A   Clear
8:53 AM 19.9 °F - 18.0 °F 92% 29.84 in 10.0 mi Calm Calm - N/A   Clear
9:53 AM 19.0 °F 13.9 °F 17.1 °F 92% 29.83 in 10.0 mi WNW 3.5 mph - N/A   Clear
10:53 AM 23.0 °F - 23.0 °F 100% 29.81 in 10.0 mi Calm Calm - N/A   Clear
11:53 AM 27.0 °F - 26.1 °F 96% 29.79 in 10.0 mi Calm Calm - N/A   Clear
12:53 PM 28.9 °F - 28.0 °F 96% 29.78 in 10.0 mi Calm Calm - N/A   Clear
1:53 PM 33.1 °F - 28.9 °F 85% 29.78 in 10.0 mi Calm Calm - N/A   Clear
2:53 PM 36.0 °F - 28.9 °F 76% 29.75 in 10.0 mi Calm Calm - N/A   Clear
3:53 PM 34.0 °F - 28.0 °F 79% 29.73 in 10.0 mi Calm Calm - N/A   Clear
4:53 PM 30.0 °F - 26.1 °F 85% 29.70 in 10.0 mi Calm Calm - N/A   Clear
5:53 PM 28.0 °F - 25.0 °F 88% 29.69 in 10.0 mi Calm Calm - N/A   Clear
6:53 PM 25.0 °F - 23.0 °F 92% 29.68 in 10.0 mi Calm Calm - N/A   Clear
7:53 PM 23.0 °F - 21.0 °F 92% 29.68 in 10.0 mi Calm Calm - N/A   Clear
8:53 PM 21.0 °F - 19.0 °F 92% 29.67 in 10.0 mi Calm Calm - N/A   Partly Cloudy
9:53 PM 23.0 °F 18.4 °F 21.0 °F 92% 29.67 in 10.0 mi SE 3.5 mph - N/A   Partly Cloudy
10:53 PM 19.9 °F - 19.0 °F 96% 29.66 in 10.0 mi Calm Calm - N/A   Partly Cloudy
11:53 PM 24.1 °F - 19.9 °F 84% 29.67 in 10.0 mi Calm Calm - N/A   Scattered Clouds